Content
SEND FEEDBACK

Daily
Averages
Monthly
Summary
France

CAEN, FRANCE


Home > Europe > France
Elevation: 220 feet     Latitude: 49 11N     Longitude: 000 27W

WEATHER
 
SELECT A DAY
Number of Records: 216,049;   Date Range: 7/1/96 - 8/31/14
 
SHARE

PRINT THIS DATA

[ ← Previous Day ]
WEATHER ALMANAC - MARCH 22, 2013
[ Next Day → ]
[ °C ]   °F
Weather ElementAverageHighLow
Temperature48.3 °F55.4 °F (2:30 pm)42.8 °F (3:30 am)
Dewpoint42.5 °F44.6 °F (5:00 pm)39.2 °F (6:30 am)
Humidity80.4 %93 % (12:30 am)57 % (1:00 pm)
Barometer29.65 in29.83 in (12:30 am)29.56 in (2:30 pm)
Wind Speed12.7 mph18.4 mph (11:30 am)
Weather ElementAverage
Visibility6.7 mi
Wind DirectionESE (119.2 °)

Weather ElementTotal
Precipitation---
Heating Degree Days15.9 (Base 65)
Averaged from 50 records on March 22, 2013
WEATHER CONDITIONS BREAKOUT
WIND DIRECTION BREAKOUT
WEATHER BY HOUR - MARCH 22, 2013
[ °C ]   °F
Local TimeTemperatureDewpointHumidityBarometerVisibilityWind DirectionWind SpeedGust SpeedPrecipitationEventsConditions
12:30 AM44.6 °F42.8 °F93 %29.83 in5.6 miSE (130°)13.8 mphRainLight Rain
1:00 AM45.0 °F43.0 °F92 %29.83 in13.0 miESE (120°)16.1 mphClear
1:00 AM44.6 °F42.8 °F93 %29.80 in6.2 miESE (120°)16.1 mphMostly Cloudy
1:30 AM44.6 °F42.8 °F93 %29.80 in6.2 miSE (130°)17.3 mphMostly Cloudy
2:00 AM44.6 °F42.8 °F93 %29.77 in6.2 miSE (130°)16.1 mph
2:30 AM44.6 °F42.8 °F93 %29.77 in6.2 miSE (130°)16.1 mph
3:00 AM44.6 °F42.8 °F93 %29.77 in6.2 miSE (130°)16.1 mph
3:30 AM42.8 °F41.0 °F93 %29.74 in6.2 miSE (130°)15.0 mph
4:00 AM42.8 °F41.0 °F93 %29.74 in6.2 miSE (130°)13.8 mph
4:30 AM42.8 °F41.0 °F93 %29.74 in6.2 miSE (130°)13.8 mph
5:00 AM42.8 °F41.0 °F93 %29.71 in6.2 miESE (120°)16.1 mph
5:30 AM42.8 °F41.0 °F93 %29.71 in6.2 miESE (120°)16.1 mph
6:00 AM42.8 °F41.0 °F93 %29.71 in6.2 miESE (120°)15.0 mph
6:30 AM42.8 °F39.2 °F87 %29.68 in6.2 miESE (120°)12.7 mph
7:00 AM42.8 °F39.2 °F87 %29.68 in6.2 miESE (120°)15.0 mph
7:30 AM42.8 °F39.2 °F87 %29.68 in6.2 miESE (120°)15.0 mph
8:00 AM42.8 °F39.2 °F87 %29.68 in6.2 miESE (110°)13.8 mph
8:30 AM42.8 °F39.2 °F87 %29.68 in6.2 miESE (120°)11.5 mph
9:00 AM44.6 °F41.0 °F87 %29.68 in6.2 miESE (120°)10.4 mph
9:30 AM46.4 °F41.0 °F81 %29.65 in6.2 miESE (120°)13.8 mph
10:00 AM46.4 °F41.0 °F81 %29.65 in6.2 miESE (120°)15.0 mph
10:30 AM48.2 °F41.0 °F76 %29.65 in6.2 miESE (110°)16.1 mph
11:00 AM50.0 °F42.8 °F76 %29.62 in6.2 miESE (110°)16.1 mph
11:30 AM50.0 °F41.0 °F71 %29.62 in6.2 miESE (110°)18.4 mph
12:00 PM51.8 °F42.8 °F71 %29.62 in6.2 miESE (110°)17.3 mph
12:30 PM51.8 °F41.0 °F67 %29.62 in6.2 miESE (110°)17.3 mph
1:00 PM53.0 °F42.0 °F57 %29.62 in19.0 miESE (110°)16.1 mphScattered Clouds
1:00 PM51.8 °F42.8 °F71 %29.59 in6.2 miESE (110°)16.1 mph
1:30 PM53.6 °F42.8 °F67 %29.59 in6.2 miESE (120°)16.1 mph
2:00 PM53.6 °F42.8 °F67 %29.59 in6.2 miESE (110°)15.0 mphOvercast
2:30 PM55.4 °F42.8 °F63 %29.56 in6.2 miESE (110°)16.1 mph
3:00 PM53.6 °F42.8 °F67 %29.56 in6.2 miESE (110°)13.8 mphMostly Cloudy
3:30 PM53.6 °F41.0 °F62 %29.56 in6.2 miESE (110°)13.8 mph
4:00 PM53.6 °F42.8 °F67 %29.56 in6.2 miESE (120°)11.5 mph
4:30 PM53.6 °F42.8 °F67 %29.56 in6.2 miESE (120°)8.1 mph
5:00 PM53.6 °F44.6 °F72 %29.56 in6.2 miESE (120°)8.1 mph
5:30 PM53.6 °F44.6 °F72 %29.56 in6.2 miESE (120°)6.9 mph
6:00 PM51.8 °F44.6 °F76 %29.56 in6.2 miSE (130°)6.9 mph
6:30 PM51.8 °F44.6 °F76 %29.59 in6.2 miESE (120°)5.8 mph
7:00 PM52.0 °F44.0 °F68 %29.60 in15.0 miESE (120°)8.1 mphClear
7:00 PM51.8 °F44.6 °F76 %29.59 in6.2 miESE (120°)8.1 mph
7:30 PM51.8 °F44.6 °F76 %29.59 in6.2 miESE (120°)6.9 mph
8:00 PM51.8 °F44.6 °F76 %29.59 in6.2 miESE (110°)5.8 mph
8:30 PM51.8 °F44.6 °F76 %29.59 in6.2 miESE (120°)8.1 mphRainLight Rain
9:00 PM50.0 °F44.6 °F82 %29.59 in6.2 miESE (120°)8.1 mphRainLight Rain
9:30 PM50.0 °F44.6 °F82 %29.62 in6.2 miSE (130°)8.1 mphRainLight Rain
10:00 PM48.2 °F44.6 °F87 %29.62 in5.0 miESE (120°)9.2 mphRainLight Rain
10:30 PM48.2 °F44.6 °F87 %29.62 in5.6 miESE (120°)6.9 mphRainLight Rain
11:00 PM48.2 °F44.6 °F87 %29.62 in5.6 miESE (110°)6.9 mph
11:30 PM48.2 °F44.6 °F87 %29.62 in4.3 miESE (120°)9.2 mphRainLight Rain
Hourly data recorded from LFRK, located miles away from Caen, France







STORIES FROM OUR PARTNERS